This demonstration page uses our WeatherBlox Daily Observations layout. Learn more.

Left ArrowRight Arrow

Hourly Observations for April 13, 2021

Temp ( °F °C ) Dew Point ( °F °C ) Humidity (%) Winds ( mph kmh ) Pressure ( in mb ) Visibility ( mi km ) Precip ( " mm )
12:59 am 00:59 Cloudy 54 12.2 48 8.9 80 80 N 9 15 29.92 1013 10 16 0.00 0.00
1:59 am 01:59 Cloudy 53 11.7 47 8.3 80 80 NNE 9 15 29.92 1013 10 16 0.00 0.00
2:59 am 02:59 Cloudy 53 11.7 46 7.8 77 77 N 12 19 29.93 1014 10 16 0.00 0.00
3:59 am 03:59 Cloudy 53 11.7 45 7.2 74 74 undefined N/A 29.94 1014 10 16 0.00 0.00
4:59 am 04:59 Cloudy 53 11.7 45 7.2 74 74 N 8 13 29.96 1015 10 16 0.00 0.00
5:59 am 05:59 Cloudy 53 11.7 44 6.7 72 72 NNE 12 19 29.99 1016 10 16 0.00 0.00
6:59 am 06:59 Cloudy 53 11.7 45 7.2 74 74 NNW 8 13 30.01 1016 10 16 0.00 0.00
7:59 am 07:59 Cloudy 54 12.2 45 7.2 72 72 N 8 13 30.03 1017 10 16 0.00 0.00
8:15 am 08:15 Mostly Cloudy 54 12.2 45 7.2 72 72 N 9 15 30.04 1017 10 16 0.00 0.00
8:59 am 08:59 Mostly Cloudy 56 13.3 47 8.3 72 72 NNW 10 17 30.04 1017 10 16 0.00 0.00
9:59 am 09:59 Mostly Cloudy 56 13.3 47 8.3 72 72 NNE 10 17 30.06 1018 10 16 0.00 0.00
10:59 am 10:59 Cloudy 58 14.4 47 8.3 67 67 NNE 13 20 30.07 1018 10 16 0.00 0.00
11:59 am 11:59 Mostly Cloudy 57 13.9 48 8.9 72 72 NNE 15 24 30.09 1019 10 16 0.00 0.00
12:59 pm 12:59 Mostly Cloudy 59 15 49 9.4 69 69 NNE 15 24 30.09 1019 9 14 0.00 0.00
1:59 pm 13:59 Mostly Sunny 59 15 49 9.4 69 69 NNE 13 20 30.08 1019 10 16 0.00 0.00
2:59 pm 14:59 Partly Cloudy 59 15 49 9.4 69 69 NE 13 20 30.07 1018 10 16 0.00 0.00
3:59 pm 15:59 Partly Cloudy 60 15.6 48 8.9 65 65 NE 15 24 30.07 1018 10 16 0.00 0.00
4:59 pm 16:59 Partly Cloudy 57 13.9 47 8.3 69 69 E 9 15 30.08 1019 10 16 0.00 0.00
5:59 pm 17:59 Mostly Cloudy 56 13.3 45 7.2 67 67 ENE 8 13 30.09 1019 10 16 0.00 0.00
6:59 pm 18:59 Mostly Cloudy 54 12.2 44 6.7 69 69 E 10 17 30.09 1019 10 16 0.00 0.00
7:59 pm 19:59 Mostly Cloudy 51 10.6 43 6.1 74 74 ESE 8 13 30.09 1019 10 16 0.00 0.00
8:59 pm 20:59 Partly Cloudy 50 10 43 6.1 77 77 SE 5 7 30.12 1020 10 16 0.00 0.00
9:59 pm 21:59 Mostly Cloudy 49 9.4 43 6.1 80 80 S 5 7 30.14 1021 10 16 0.00 0.00
10:59 pm 22:59 Partly Cloudy 48 8.9 42 5.6 80 80 Calm 30.16 1021 10 16 0.00 0.00
11:59 pm 23:59 Partly Cloudy 47 8.3 42 5.6 83 83 S 3 6 30.16 1021 10 16 0.00 0.00

Powered by AerisWeather